Flag for U.S.A. Weather past 2 weeks in Little Rock, Arkansas, U.S.A.

86 °F

Broken clouds.

Feels Like: 85 °F
Forecast: 64 / 87 °F
Wind: 5 mph from East

Location: Adams Field

Current Time: Oct 8, 2015 at 6:48:33 PM

Latest Report: Oct 8, 2015 at 5:53 PM

Visibility: 10 mi

Pressure: 30.00 "Hg

Humidity: 39%

Dew point: 58 °F

Location of Little RockLocation

Historic Weather in Little Rock — Graph


Little Rock temperature yesterday

Maximum temperature yesterday: 87 °F (at 3:53 PM)
Minimum temperature yesterday: 65 °F (at 5:53 AM)
Average temperature yesterday: 74 °F

Past Weeks' High & Low Weather Summary

High91 °F (Sep 24, 2:53 PM)93% (Sep 29, 3:53 AM)30.14 "Hg (Sep 29, 3:53 AM)
Low53 °F (Oct 2, 6:53 AM)24% (Oct 1, 2:53 PM)29.86 "Hg (Sep 28, 4:53 PM)
Average72 °F63%30.02 "Hg
* Reported Sep 23 4:53 PM — Oct 8 4:53 PM, Little Rock, Weather by CustomWeather, © 2015

Note: Actual official high and low records may vary slightly from our data, if they occured in-between our weather recording intervals... More about our weather records


Little Rock weather history for previous 24 hours

Time TempWeatherWind HumidityBarometerVisibility
4:53 PM
Thu, Oct 8
88 °FBroken clouds.No wind38%30.00 "Hg10 mi
3:53 PM86 °FBroken clouds.5 mph40%30.01 "Hg10 mi
2:53 PM87 °FBroken clouds.9 mph39%30.03 "Hg10 mi
1:53 PM88 °FBroken clouds.No wind38%30.05 "Hg10 mi
12:53 PM86 °FScattered clouds.No wind42%30.08 "Hg10 mi
11:53 AM83 °FScattered clouds.No wind48%30.10 "Hg10 mi
10:53 AM79 °FScattered clouds.5 mph54%30.11 "Hg10 mi
9:53 AM74 °FScattered clouds.5 mph64%30.11 "Hg10 mi
8:53 AM70 °FScattered clouds.5 mph73%30.11 "Hg10 mi
7:53 AM65 °FPassing clouds.5 mph85%30.10 "Hg7 mi
6:53 AM65 °FPartly cloudy.3 mph85%30.09 "Hg10 mi
5:53 AM65 °FPassing clouds.3 mph81%30.08 "Hg10 mi
4:53 AM65 °FPassing clouds.5 mph81%30.07 "Hg10 mi
3:53 AM66 °FPassing clouds.3 mph78%30.06 "Hg10 mi
2:53 AM67 °FPassing clouds.3 mph79%30.07 "Hg10 mi
1:53 AM68 °FPassing clouds.No wind76%30.07 "Hg10 mi
12:53 AM69 °FPassing clouds.3 mph73%30.08 "Hg10 mi
11:53 PM
Wed, Oct 7
70 °FPassing clouds.3 mph73%30.08 "Hg10 mi
10:53 PM70 °FPassing clouds.5 mph71%30.10 "Hg10 mi
9:53 PM72 °FPassing clouds.5 mph68%30.09 "Hg10 mi
8:53 PM74 °FPassing clouds.5 mph64%30.08 "Hg10 mi
7:53 PM74 °FPassing clouds.6 mph62%30.07 "Hg10 mi
6:53 PM77 °FPartly sunny.6 mph54%30.07 "Hg10 mi
Weather by CustomWeather, © 2015

See weather overviewHow to use our weather pages